Weather History for Swansboro, NC

Change the Weather History Date:

Thursday, February 21, 2013

  Actual Average (KNKT) Record (KNKT)
Temperature  
Mean Temperature 42 °F -  
Max Temperature 55 °F 56 °F 86 °F (2005)
Min Temperature 30 °F 36 °F 21 °F (2009)
Degree Days  
Heating Degree Days 22    
Moisture  
Dew Point 24 °F    
Average Humidity 50    
Maximum Humidity 88    
Minimum Humidity 23    
Precipitation  
Precipitation 0.00 in - - ()
Sea Level Pressure  
Sea Level Pressure 30.19 in    
Wind  
Wind Speed 6 mph (North)    
Max Wind Speed 12 mph    
Max Gust Speed -    
Visibility 10 miles    
Events      
Averages and records for this station are not official NWS values.
T = Trace of Precipitation, MM = Missing Value Source: NWS Daily Summary

Daily Weather History Graph

Daily Weather History Graph

Search for Another Location

Airport:

Trip Planner

Search our weather history database for the weather conditions in past years. The results will help you decide how hot, cold, wet, or windy it might be!

Date:

Astronomy

Feb. 21, 2013 Rise Set
Actual Time 6:46 AM EST 5:57 PM EST
Civil Twilight 6:21 AM EST 6:22 PM EST
Nautical Twilight 5:51 AM EST 6:52 PM EST
Astronomical Twilight 5:22 AM EST 7:21 PM EST
Moon 2:16 PM EST (2/21) 3:43 AM EST (2/21)
Length of Visible Light 12h 01m
Length of Day
11h 10m
Waxing Gibbous, 83% of the Moon is Illuminated
Feb 21
Waxing Gibbous
Feb 25
Full
Mar 4
Last Quarter
Mar 11
New
Mar 19
First Quarter

Hourly Weather History & Observations

Time (EST) Temp. Windchill Dew Point Humidity Pressure Visibility Wind Dir Wind Speed Gust Speed Precip Events Conditions
12:57 AM 32.0 °F 27.5 °F 28.9 °F 88% 30.13 in 10.0 mi West 4.6 mph - N/A   Clear
1:57 AM 36.0 °F 31.1 °F 24.1 °F 62% 30.12 in 10.0 mi NNW 5.8 mph - N/A   Clear
2:57 AM 35.1 °F 32.2 °F 21.0 °F 57% 30.13 in 10.0 mi NNW 3.5 mph - N/A   Clear
3:57 AM 33.1 °F 27.7 °F 19.9 °F 59% 30.14 in 10.0 mi NNW 5.8 mph - N/A   Clear
4:57 AM 34.0 °F 28.0 °F 19.0 °F 54% 30.15 in 10.0 mi North 6.9 mph - N/A   Clear
5:57 AM 32.0 °F 26.4 °F 18.0 °F 56% 30.18 in 10.0 mi NNW 5.8 mph - N/A   Clear
6:57 AM 30.9 °F 25.2 °F 19.0 °F 61% 30.19 in 10.0 mi NNW 5.8 mph - N/A   Clear
7:57 AM 35.1 °F - 23.0 °F 61% 30.22 in 10.0 mi North - - N/A   Clear
8:57 AM 39.9 °F 35.1 °F 28.0 °F 63% 30.23 in 10.0 mi North 6.9 mph - N/A   Clear
9:57 AM 44.1 °F 39.0 °F 27.0 °F 51% 30.23 in 10.0 mi North 9.2 mph - N/A   Clear
10:57 AM 46.9 °F - 25.0 °F 42% 30.21 in 10.0 mi Variable 6.9 mph - N/A   Clear
11:57 AM 50.0 °F - 25.0 °F 38% 30.19 in 10.0 mi Calm Calm - N/A   Clear
12:57 PM 52.0 °F - 21.9 °F 31% 30.17 in 10.0 mi West 4.6 mph - N/A   Partly Cloudy
1:57 PM 55.0 °F - 19.9 °F 25% 30.16 in 10.0 mi NW 11.5 mph - N/A   Clear
2:57 PM 55.9 °F - 19.9 °F 25% 30.14 in 10.0 mi WNW 9.2 mph - N/A   Clear
3:57 PM 55.0 °F - 17.1 °F 23% 30.12 in 10.0 mi NNW 8.1 mph - N/A   Clear
4:57 PM 55.0 °F - 17.1 °F 23% 30.14 in 10.0 mi NNW 3.5 mph - N/A   Clear
5:57 PM 50.0 °F - 21.9 °F 33% 30.17 in 10.0 mi North 3.5 mph - N/A   Clear
6:57 PM 46.0 °F 44.8 °F 23.0 °F 40% 30.19 in 10.0 mi NNE 3.5 mph - N/A   Clear
7:57 PM 45.0 °F 42.6 °F 28.9 °F 53% 30.23 in 10.0 mi NE 4.6 mph - N/A   Clear
8:57 PM 44.1 °F 42.5 °F 33.1 °F 65% 30.25 in 10.0 mi ENE 3.5 mph - N/A   Clear
9:57 PM 43.0 °F 38.2 °F 30.9 °F 62% 30.26 in 10.0 mi ENE 8.1 mph - N/A   Clear
10:57 PM 42.1 °F 38.4 °F 30.9 °F 65% 30.26 in 10.0 mi NE 5.8 mph - N/A   Clear
11:57 PM 39.9 °F 37.8 °F 30.9 °F 70% 30.27 in 10.0 mi NE 3.5 mph - N/A   Clear